Wind_Speed
11 11 10 10 11 10 10 10 10 9 10 10 11 11 11 11 11 12 12 13 13 13 13 13 13 13 13 14 14 14 14 14 14 14 14 13 13 13 14 13 13 13 13
13 12 12 11 12 12 11 11 11 11 11 11 12 12 12 12 12 12 13 13 14 14 14 13 13 14 14 15 15 15 15 15 15 15 15 15 15 14 14 14 14 14 14
14 13 13 13 13 13 13 13 13 12 13 12 12 12 13 13 13 13 14 14 14 14 14 14 14 15 15 15 15 16 16 16 15 15 16 15 15 15 15 14 14 14 14
15 14 14 14 14 14 14 14 14 14 14 14 14 14 14 14 14 14 15 15 15 14 15 15 15 16 16 16 16 16 16 16 16 16 16 16 16 16 15 15 15 15 15
15 15 15 15 14 14 15 15 15 14 15 15 15 15 15 15 15 15 15 15 15 15 15 16 16 16 17 16 17 17 17 17 17 17 17 17 16 16 16 15 15 15 16
16 15 16 16 16 15 15 15 15 15 15 15 15 15 15 15 15 16 16 16 17 16 16 17 17 17 17 17 17 17 17 17 17 17 17 17 16 16 16 16 16 16 16
17 17 17 17 17 16 16 16 17 16 16 16 16 16 16 17 17 17 17 18 18 17 17 18 18 18 18 18 17 17 17 18 18 18 17 17 17 17 17 17 17 17 17
19 19 18 18 18 18 18 18 18 18 18 18 18 18 18 18 18 19 19 19 19 18 18 19 19 19 19 19 19 18 18 18 18 18 18 17 17 17 17 17 17 17 17
19 20 19 19 19 20 20 20 20 20 20 20 20 20 20 20 20 20 20 20 20 20 20 20 20 20 20 20 20 19 19 19 19 19 19 19 18 18 18 18 18 18 18
19 20 21 21 21 22 22 22 22 22 22 22 22 22 21 21 21 21 21 21 21 21 22 22 21 21 21 21 21 20 20 19 19 19 19 19 19 19 19 19 19 19 19
20 21 21 21 22 23 23 23 23 23 24 23 23 23 23 23 23 22 22 23 23 23 23 23 23 23 23 23 22 21 21 21 20 20 19 19 19 19 19 19 19 19 19
20 20 21 22 23 23 23 23 24 24 24 24 24 24 24 24 24 24 24 24 25 24 24 25 24 24 24 23 23 22 22 22 21 21 21 20 20 20 19 20 20 21 20
21 22 22 23 23 23 24 24 24 24 24 25 25 25 25 25 25 26 26 26 26 26 26 26 26 25 24 24 24 24 23 23 22 22 22 21 21 21 21 21 21 21 21
23 23 23 23 24 24 25 25 25 25 25 26 26 26 26 27 27 27 28 28 28 27 27 27 27 26 25 25 25 25 24 23 23 23 23 23 22 22 22 22 22 22 23
25 24 23 24 25 25 25 26 26 26 26 27 27 27 27 28 28 29 28 28 28 28 28 28 28 28 27 26 25 25 25 24 24 23 23 24 24 24 23 23 23 22 22
26 26 25 25 25 26 26 27 27 27 27 27 27 27 27 28 28 28 28 28 28 28 28 28 29 29 28 27 26 26 26 25 25 25 25 24 24 24 24 24 24 24 23
27 26 26 26 26 27 27 27 27 27 27 27 27 27 28 29 29 28 29 29 29 29 29 29 29 29 29 28 28 27 26 27 26 26 26 25 25 24 25 25 25 24 24
29 28 27 27 27 27 27 27 27 27 28 29 29 29 30 30 30 31 31 30 30 30 30 29 29 29 29 29 29 28 28 28 27 27 27 26 26 25 25 25 25 25 25
30 29 29 28 28 29 29 29 29 28 29 29 30 30 31 31 32 32 32 32 31 31 30 30 30 30 29 30 30 30 29 29 28 28 27 28 27 26 26 26 26 26 26
31 30 30 29 29 30 30 29 29 29 29 30 30 31 31 32 32 32 32 31 31 30 30 29 29 29 29 29 30 30 29 29 29 29 28 28 27 27 28 27 27 27 27
30 30 30 30 30 30 30 30 30 30 30 30 31 31 31 31 31 31 31 30 29 29 29 29 29 29 29 28 28 28 29 29 29 29 29 28 28 28 28 28 28 28 28
30 30 30 30 30 30 30 30 30 31 31 31 31 31 31 31 30 30 30 30 30 29 29 29 29 29 29 29 28 28 28 29 29 29 29 29 29 29 29 29 29 29 29
30 30 29 29 30 30 31 31 31 31 32 32 32 31 31 31 31 30 29 29 29 28 28 28 28 28 29 29 29 29 29 29 29 29 29 29 29 29 30 30 30 30 30
31 30 30 30 30 30 30 31 31 32 32 32 32 31 31 31 30 30 29 29 29 29 28 28 28 28 28 28 29 29 28 28 28 29 29 30 30 30 31 31 31 31 31
29 30 30 30 30 30 31 31 31 31 32 32 31 31 31 31 31 30 30 29 29 29 29 28 29 29 29 28 29 29 28 28 28 29 30 30 30 30 31 31 31 31 31
31 31 30 31 31 31 31 31 31 31 32 32 31 31 31 31 31 31 30 30 30 29 29 29 29 29 29 28 28 29 29 29 30 30 30 30 31 31 31 31 31 31 32
Wind_Direction
274 276 279 283 285 284 286 288 288 287 287 287 287 287 287 287 286 285 285 286 285 282 280 279 281 282 284 285 286 286 286 285 286 286 286 286 286 286 284 283 282 281 278
273 274 275 276 281 282 283 285 285 285 285 286 285 283 284 285 289 291 291 289 287 285 284 282 282 283 285 286 286 285 284 284 284 285 285 285 285 285 284 283 282 281 279
274 274 275 277 279 282 284 283 282 283 284 285 284 283 285 286 287 289 291 292 289 286 284 285 283 284 286 286 285 284 284 284 283 284 284 284 285 286 285 283 282 282 279
272 274 275 276 278 280 282 282 282 282 282 282 283 283 285 286 288 289 291 292 291 289 286 287 286 285 286 287 285 283 283 282 283 285 285 285 283 284 282 281 280 280 279
270 273 275 276 276 279 281 282 282 282 282 283 283 283 284 286 287 288 290 291 289 288 288 288 289 288 287 286 284 283 282 281 281 282 284 285 285 283 281 279 279 280 279
271 273 275 275 276 278 280 282 282 282 282 283 283 284 284 284 285 288 290 290 288 286 286 288 289 288 288 285 282 281 280 280 280 281 282 283 285 284 282 281 281 280 280
273 274 275 275 277 277 277 279 280 280 281 282 283 284 284 282 283 286 289 291 289 286 286 287 288 288 287 284 281 279 279 277 278 279 280 282 283 282 282 282 281 280 280
274 274 274 275 276 276 277 278 278 279 279 280 281 282 283 282 283 285 287 289 289 287 286 286 286 287 285 284 281 279 280 278 276 276 277 278 279 279 279 281 281 280 281
274 273 274 275 276 277 277 276 276 277 278 279 279 280 281 281 282 284 285 286 287 287 286 287 286 285 285 283 281 280 279 278 276 276 276 276 277 278 277 279 281 281 283
277 275 275 277 276 277 277 276 275 276 277 278 278 279 279 280 282 282 282 283 284 285 285 286 287 285 284 283 281 279 278 278 277 276 277 276 276 276 276 278 280 280 280
277 277 276 277 277 277 276 276 276 276 276 277 277 278 278 279 281 281 281 281 282 282 283 283 284 284 283 281 280 279 278 277 275 275 275 276 276 277 276 277 279 280 281
278 277 276 276 277 277 277 277 277 276 276 277 277 277 278 278 278 279 280 281 281 282 282 281 281 281 281 280 278 278 277 275 274 274 274 275 275 274 276 277 278 279 280
278 277 278 278 276 275 276 276 276 275 276 277 277 276 277 278 278 279 279 280 280 280 281 281 281 280 279 278 276 275 275 274 274 274 273 273 274 273 275 277 279 278 279
277 277 277 276 275 275 275 276 276 276 277 277 277 276 277 278 277 277 279 279 280 279 279 280 280 279 277 276 275 273 274 274 274 272 271 271 272 272 274 277 279 279 278
275 276 276 276 275 275 274 275 276 276 276 277 276 277 277 277 278 278 279 280 280 280 279 279 279 278 276 275 274 273 272 272 272 271 272 271 270 270 272 276 277 278 279
277 277 277 277 276 276 275 276 276 276 276 276 276 277 278 278 279 279 280 280 280 280 279 278 276 276 274 272 272 272 271 271 271 271 273 272 271 270 272 275 276 278 279
277 277 276 279 278 277 277 276 277 276 276 277 277 278 279 280 279 279 280 280 280 280 279 277 275 274 271 269 269 270 270 270 270 271 271 271 271 272 272 274 277 279 280
277 276 277 277 279 280 279 278 277 277 277 278 278 279 279 279 279 279 279 279 279 278 277 276 275 274 271 269 269 269 270 270 270 270 270 270 271 272 273 276 277 277 278
275 277 277 277 279 280 280 279 280 279 278 279 279 279 280 280 279 279 278 278 278 277 276 276 274 274 272 270 268 267 267 268 268 268 269 270 271 270 272 275 278 278 279
274 276 275 277 278 279 280 281 282 280 279 279 279 279 280 280 279 279 279 279 278 277 276 275 274 273 272 271 268 266 266 266 267 267 268 270 271 271 273 275 278 279 279
274 275 275 276 277 278 279 280 281 281 280 279 279 279 280 280 279 278 278 278 278 277 276 275 275 273 271 270 268 266 267 266 266 267 267 268 271 272 272 274 277 279 280
272 274 274 275 276 277 278 279 281 281 280 280 280 280 280 280 280 279 278 277 277 276 276 276 276 274 271 269 268 267 267 266 266 266 267 267 269 271 272 273 275 278 280
271 273 273 275 276 276 277 278 280 281 281 281 281 281 280 280 280 280 279 277 276 275 274 274 275 274 271 269 268 266 266 266 267 266 266 267 269 271 273 274 275 277 280
273 273 274 275 275 275 277 280 281 282 282 282 281 279 279 279 280 280 280 279 276 273 273 272 273 273 271 272 270 267 267 267 268 267 267 267 268 271 273 274 275 276 279
273 275 277 278 277 278 278 280 282 282 282 282 280 279 279 278 278 278 279 279 277 274 273 274 273 273 273 272 270 269 269 270 269 268 268 268 269 272 274 274 275 276 277
275 276 277 278 278 278 278 279 281 282 282 282 281 280 279 279 278 278 277 277 277 276 275 274 274 273 272 270 270 269 270 270 271 271 270 268 268 270 273 274 275 275 276
Height
5844 5844 5844 5844 5844 5844 5844 5844 5844 5844 5843 5843 5843 5844 5844 5844 5844 5844 5843 5843 5843 5843 5843 5843 5843 5843 5843 5843 5842 5842 5842 5841 5841 5841 5841 5841 5840 5840 5840 5840 5839 5839 5839
5842 5842 5842 5842 5842 5842 5842 5842 5842 5842 5841 5841 5841 5841 5841 5841 5841 5841 5841 5841 5841 5840 5840 5840 5840 5840 5840 5839 5839 5839 5839 5838 5838 5838 5838 5837 5837 5837 5836 5836 5836 5836 5836
5839 5839 5840 5840 5840 5839 5839 5839 5839 5839 5839 5839 5839 5839 5839 5839 5839 5839 5838 5838 5837 5837 5837 5837 5837 5836 5836 5836 5835 5835 5835 5834 5834 5834 5834 5834 5834 5833 5833 5833 5833 5832 5832
5836 5836 5837 5837 5837 5837 5837 5836 5836 5836 5836 5836 5836 5836 5836 5836 5836 5836 5835 5835 5834 5834 5834 5833 5833 5832 5832 5832 5831 5831 5831 5830 5830 5830 5830 5830 5829 5829 5829 5829 5829 5829 5829
5833 5834 5834 5834 5834 5834 5834 5833 5833 5833 5833 5833 5833 5833 5833 5833 5832 5832 5832 5831 5831 5830 5830 5829 5829 5828 5828 5827 5827 5827 5826 5826 5826 5826 5825 5825 5825 5825 5825 5825 5825 5825 5825
5830 5830 5830 5830 5830 5830 5830 5830 5830 5830 5830 5830 5829 5829 5829 5829 5829 5828 5828 5827 5827 5826 5826 5825 5824 5824 5823 5823 5822 5822 5822 5822 5822 5821 5821 5821 5821 5821 5821 5821 5821 5821 5821
5826 5826 5827 5827 5827 5827 5827 5826 5826 5826 5826 5826 5826 5826 5825 5825 5825 5824 5824 5823 5822 5822 5821 5821 5820 5819 5818 5818 5817 5817 5817 5817 5817 5817 5817 5817 5817 5817 5817 5817 5817 5817 5817
5821 5822 5822 5823 5823 5823 5823 5823 5822 5822 5822 5822 5822 5821 5821 5821 5820 5820 5819 5818 5818 5817 5817 5816 5815 5814 5813 5813 5812 5812 5812 5812 5812 5812 5812 5812 5812 5812 5812 5812 5812 5812 5812
5817 5817 5818 5818 5818 5818 5818 5818 5818 5818 5818 5818 5817 5817 5816 5816 5816 5815 5814 5814 5813 5812 5811 5811 5810 5809 5808 5808 5807 5807 5807 5807 5807 5807 5807 5807 5807 5807 5807 5807 5807 5808 5807
5812 5812 5813 5813 5813 5813 5813 5813 5813 5813 5813 5812 5812 5812 5811 5811 5810 5810 5809 5808 5808 5807 5806 5805 5804 5804 5803 5802 5802 5801 5801 5801 5801 5802 5802 5802 5802 5802 5803 5803 5803 5802 5803
5807 5807 5807 5808 5808 5807 5807 5807 5807 5807 5807 5807 5806 5806 5805 5805 5804 5804 5803 5803 5802 5801 5800 5800 5799 5798 5797 5797 5796 5796 5796 5796 5796 5796 5797 5797 5797 5797 5797 5797 5797 5797 5797
5802 5802 5802 5802 5802 5802 5802 5801 5801 5801 5800 5800 5800 5799 5799 5798 5798 5797 5797 5796 5795 5795 5794 5793 5793 5792 5791 5791 5791 5790 5790 5790 5790 5790 5791 5791 5792 5792 5792 5792 5792 5792 5792
5796 5796 5796 5796 5796 5795 5795 5795 5795 5794 5794 5794 5793 5793 5792 5792 5791 5791 5790 5789 5789 5788 5787 5786 5786 5786 5785 5785 5785 5784 5784 5784 5784 5785 5785 5785 5786 5786 5786 5787 5787 5787 5786
5790 5790 5789 5789 5789 5788 5788 5788 5788 5787 5787 5787 5786 5786 5785 5785 5784 5783 5783 5782 5781 5781 5780 5779 5779 5778 5778 5778 5778 5778 5778 5778 5778 5779 5779 5779 5780 5780 5781 5781 5781 5780 5780
5783 5783 5782 5781 5781 5781 5781 5781 5780 5780 5780 5779 5778 5778 5777 5777 5776 5775 5774 5774 5773 5772 5772 5771 5771 5771 5771 5771 5771 5771 5771 5772 5772 5772 5773 5773 5773 5774 5774 5774 5774 5774 5774
5775 5775 5774 5774 5773 5773 5773 5773 5772 5772 5772 5771 5771 5770 5769 5769 5768 5767 5766 5766 5765 5764 5763 5763 5763 5763 5763 5763 5763 5764 5764 5765 5765 5766 5766 5766 5767 5767 5767 5768 5768 5768 5768
5767 5767 5766 5766 5766 5766 5765 5765 5764 5764 5763 5763 5762 5762 5761 5761 5760 5759 5758 5757 5756 5756 5755 5754 5754 5754 5754 5755 5755 5756 5757 5758 5758 5759 5759 5760 5760 5760 5761 5761 5761 5761 5761
5760 5759 5759 5759 5758 5757 5757 5756 5756 5755 5755 5754 5754 5753 5752 5752 5751 5750 5749 5748 5748 5747 5746 5746 5745 5745 5746 5746 5747 5747 5748 5750 5751 5751 5752 5753 5753 5754 5754 5754 5754 5754 5753
5751 5751 5751 5750 5750 5749 5749 5748 5747 5747 5746 5746 5745 5744 5743 5742 5741 5740 5739 5739 5738 5738 5737 5737 5737 5736 5737 5737 5738 5739 5740 5741 5742 5744 5745 5745 5746 5746 5747 5747 5747 5746 5746
5742 5742 5742 5742 5741 5741 5740 5740 5739 5738 5737 5737 5736 5735 5734 5733 5732 5731 5730 5729 5729 5728 5728 5728 5727 5727 5728 5728 5729 5730 5731 5733 5734 5735 5737 5737 5738 5738 5739 5739 5739 5739 5738
5734 5734 5734 5733 5733 5732 5731 5731 5730 5729 5729 5727 5726 5725 5724 5723 5722 5721 5721 5720 5720 5719 5719 5719 5719 5719 5719 5719 5720 5721 5722 5724 5725 5727 5728 5729 5730 5730 5730 5731 5731 5731 5730
5725 5725 5725 5724 5724 5723 5722 5722 5721 5720 5719 5718 5717 5716 5715 5713 5713 5712 5711 5711 5711 5710 5710 5710 5710 5710 5710 5711 5712 5713 5714 5715 5716 5718 5719 5720 5721 5721 5721 5722 5722 5722 5721
5716 5716 5716 5715 5715 5714 5713 5713 5712 5711 5709 5708 5707 5706 5705 5704 5703 5703 5702 5702 5701 5701 5701 5701 5701 5701 5702 5702 5703 5704 5705 5706 5707 5708 5710 5711 5711 5712 5712 5712 5713 5713 5712
5707 5707 5707 5706 5706 5705 5704 5703 5702 5701 5699 5698 5697 5697 5696 5695 5695 5694 5693 5692 5692 5692 5692 5693 5693 5693 5693 5694 5694 5695 5696 5697 5698 5699 5700 5701 5702 5703 5703 5703 5703 5703 5703
5698 5698 5698 5697 5697 5696 5695 5694 5692 5691 5689 5689 5688 5687 5686 5686 5685 5685 5684 5684 5683 5683 5684 5684 5684 5684 5685 5686 5686 5686 5687 5688 5689 5689 5690 5691 5692 5693 5693 5693 5693 5693 5693
5689 5689 5688 5688 5687 5686 5685 5684 5683 5682 5680 5679 5679 5678 5677 5676 5676 5676 5676 5675 5675 5675 5675 5675 5676 5676 5677 5677 5677 5678 5678 5679 5679 5680 5680 5681 5682 5683 5684 5684 5684 5684 5683